1,427,520개(461/71376페이지)
LECTURE
번호 제목 글쓴이 조회 날짜
1418320 "Zły Także Zagraniczne Demony" 사진 OddershedeMadden5829 3 2022.04.27 01:45
1418319 Information To Financial Institution Rec KirkpatrickByrne7212 5 2022.04.27 01:44
1418318 Can I place HID light bulbs in my supply 사진 KlitParsons1058 5 2022.04.27 01:44
1418317 What do you understand about LED cars an 사진 MahoneyGuy4502 13 2022.04.27 01:44
1418316 Are demon eye fronts lights legal? 사진 LawrenceMcKnight6091 3 2022.04.27 01:44
1418315 Are demon eye fronts lights legal? 사진 LawrenceMcKnight6091 3 2022.04.27 01:44
1418314 Teknik Hindarkan Rugi Taruhan Judi Onlin DohnLindhardt0671 0 2022.04.27 01:44
1418313 Six Shortcuts For Neon Sign That Gets Yo KofoedKeegan1952 2 2022.04.27 01:44
1418312 Find Out How To Make Neon Sign HyllestedEwing9284 1 2022.04.27 01:44
1418311 Permainan Di Tempat Gambling Permainan P DreyerShore5110 2 2022.04.27 01:44
1418310 Breakfast Menu Choices For An Event Or E HayBreen7015 0 2022.04.27 01:44
1418309 Eight Greatest Natural Home Cleansing Pr BarbeeOddershede7614 1 2022.04.27 01:44
1418308 6 Common Risks For Consulting Firms JoensenGonzales6491 2 2022.04.27 01:44
1418307 Identities Of The Noodle MarcherFisker4825 1 2022.04.27 01:43
1418306 Język Polski Klasa 6 - Szkoła Podstawowa 사진 KesslerBager3145 2 2022.04.27 01:43
1418305 آموزشگاه پیرایش و آرایشگری مردانه منافی MollerupHaas0152 3 2022.04.27 01:43
1418304 Contribution Margin CastanedaWhite8296 1 2022.04.27 01:43
1418303 Typically the War on Applied Games ButcherSweeney2637 1 2022.04.27 01:43
1418302 What Makes A Poker Player Good? GreenbergBanke1819 2 2022.04.27 01:43
1418301 Believing These 5 Myths About Mink Lash ChristieOneill6032 2 2022.04.27 01:43